Home > Weather > Osnabrück > Past weeks

Flag for Germany Weather for the Past 2 Weeks in Osnabrück, Lower Saxony, Germany

Now
46 °F

More clouds than sun.


Feels Like: 42 °F
Forecast: 36 / 43 °F
Wind: 9 mph from Southeast

Location: Muenster / Osnabrueck

Current Time: Feb 9, 2016 at 1:11:42 PM

Latest Report: Feb 9, 2016 at 12:20 PM


Visibility: N/A

Pressure: 29.18 "Hg

Humidity: 71%

Dew point: 37 °F

Location of OsnabrückLocation

Historic Weather in Osnabrück — Graph

°F

Osnabrück Temperature Yesterday

Maximum temperature yesterday: 50 °F (at 11:50 AM)
Minimum temperature yesterday: 43 °F (at 12:50 AM)
Average temperature yesterday: 46 °F

High & Low Weather Summary for the Past Weeks

 TemperatureHumidityPressure
High55 °F (Jan 25, 12:20 PM)100% (Jan 31, 6:50 PM)30.30 "Hg (Jan 31, 6:50 PM)
Low36 °F (Feb 3, 11:50 PM)53% (Jan 28, 1:50 PM)29.18 "Hg (Feb 8, 12:50 PM)
Average46 °F81%29.88 "Hg
* Reported Jan 25 11:20 AM — Feb 9 11:20 AM, Osnabrück, Weather by CustomWeather, © 2016

Note: Actual official high and low records may vary slightly from our data, if they occured in-between our weather recording intervals... More about our weather records

Advertising

Osnabrück Weather History for the Previous 24 Hours

 ConditionsComfort  
Time TempWeatherWind HumidityBarometerVisibility
11:20 AM
Tue, Feb 9
45 °FMore clouds than sun.9 mph76%29.24 "HgN/A
10:50 AM45 °FMore clouds than sun.12 mph76%29.27 "HgN/A
10:20 AM45 °FPartly sunny.10 mph76%29.27 "HgN/A
9:50 AM45 °FBroken clouds.9 mph76%29.30 "HgN/A
9:20 AM43 °FPartly sunny.9 mph87%29.33 "HgN/A
8:50 AM43 °FSprinkles. Broken clouds.15 mph81%29.33 "HgN/A
8:20 AM43 °FScattered clouds.18 mph81%29.33 "HgN/A
7:50 AM45 °FPassing clouds.18 mph76%29.33 "HgN/A
6:50 AM45 °FPassing clouds.20 mph71%29.36 "HgN/A
6:20 AM45 °FPassing clouds.18 mph71%29.36 "HgN/A
5:50 AM45 °FPassing clouds.18 mph71%29.36 "HgN/A
5:20 AM45 °FPassing clouds.22 mph71%29.39 "HgN/A
4:50 AM43 °FSprinkles. Passing clouds.20 mph81%29.39 "HgN/A
4:20 AM45 °FSprinkles. Passing clouds.23 mph71%29.36 "HgN/A
3:50 AM45 °FPassing clouds.24 mph71%29.36 "HgN/A
3:20 AM45 °FPassing clouds.22 mph76%29.36 "HgN/A
2:20 AM45 °FPassing clouds.23 mph81%29.33 "HgN/A
1:50 AM45 °FLight rain. Passing clouds.25 mph81%29.33 "HgN/A
1:20 AM45 °FLight rain. Passing clouds.25 mph81%29.33 "HgN/A
12:50 AM45 °FLight rain. Passing clouds.26 mph81%29.30 "HgN/A
12:20 AM45 °FLight rain. Passing clouds.26 mph81%29.30 "HgN/A
11:50 PM
Mon, Feb 8
45 °FLight rain. Passing clouds.26 mph81%29.27 "Hg5 mi
11:20 PM45 °FLight rain. Passing clouds.26 mph81%29.27 "HgN/A
10:50 PM45 °FLight rain. Passing clouds.25 mph81%29.27 "HgN/A
10:20 PM45 °FLight rain. Passing clouds.29 mph81%29.24 "HgN/A
9:50 PM46 °FLight rain. Passing clouds.29 mph76%29.24 "HgN/A
9:20 PM45 °FLight rain. Passing clouds.22 mph81%29.24 "HgN/A
8:50 PM45 °FLight rain. Passing clouds.26 mph81%29.24 "HgN/A
8:20 PM45 °FLight rain. Passing clouds.25 mph81%29.24 "HgN/A
7:50 PM45 °FLight rain. Passing clouds.24 mph81%29.24 "HgN/A
7:20 PM45 °FLight rain. Passing clouds.25 mph81%29.24 "HgN/A
6:50 PM46 °FLight rain. Mostly cloudy.24 mph71%29.21 "HgN/A
6:20 PM48 °FPassing clouds.20 mph62%29.21 "HgN/A
5:50 PM48 °FPassing clouds.23 mph62%29.21 "HgN/A
5:20 PM46 °FBroken clouds.23 mph66%29.21 "HgN/A
4:50 PM48 °FPartly sunny.24 mph62%29.21 "HgN/A
4:20 PM48 °FBroken clouds.24 mph66%29.21 "HgN/A
3:50 PM48 °FBroken clouds.24 mph66%29.21 "HgN/A
3:20 PM48 °FPartly sunny.23 mph66%29.21 "HgN/A
2:50 PM48 °FPartly sunny.21 mph62%29.18 "HgN/A
2:20 PM48 °FScattered showers. Scattered clouds.20 mph66%29.18 "HgN/A
1:50 PM48 °FSprinkles. Broken clouds.24 mph71%29.18 "HgN/A
1:20 PM50 °FSprinkles. Partly sunny.21 mph67%29.18 "HgN/A
Weather by CustomWeather, © 2016

See weather overviewHow to use our weather pages